Bear River@Wheatland

Start Stop
DateFlow
CFS
Gauge
Feet
DateFlow
CFS
Gauge
Feet
08/25/2019 16:4517-0.07
08/25/2019 15:4517-0.07
08/25/2019 14:4517-0.07
08/25/2019 13:4516-0.08
08/25/2019 12:4516-0.08
08/25/2019 11:4516-0.08
08/25/2019 10:4516-0.08
08/25/2019 09:4516-0.08
08/25/2019 08:4516-0.08
08/25/2019 07:4516-0.08
08/25/2019 06:4516-0.08
08/25/2019 05:4516-0.08
08/25/2019 04:4516-0.08
08/25/2019 03:4517-0.07
08/25/2019 02:4517-0.07
08/25/2019 01:4516-0.08
08/24/2019 22:4516-0.08
08/24/2019 21:4517-0.07
08/24/2019 19:4517-0.07
08/24/2019 18:4518-0.06
08/24/2019 17:45 -0.06
08/24/2019 16:45 -0.05
08/24/2019 14:4518-0.05
08/24/2019 13:4520-0.03
08/24/2019 12:4521-0.02
08/24/2019 11:4521-0.01
08/24/2019 10:45220
08/24/2019 09:4521-0.01
08/24/2019 08:45220
08/24/2019 00:45220
08/23/2019 23:45230.01
08/23/2019 20:45230.01
08/23/2019 19:45240.02
08/23/2019 18:45 0.03
08/23/2019 17:45 0.03
08/23/2019 16:45240.02
08/23/2019 15:45220
08/23/2019 14:4521-0.01
08/23/2019 13:45 -0.02
08/23/2019 11:4521-0.02
08/23/2019 10:4520-0.03
08/23/2019 09:4521-0.02
08/23/2019 08:45 -0.01
08/23/2019 06:45 -0.01
08/23/2019 05:45 -0.02
08/23/2019 04:4521-0.02
08/23/2019 03:4520-0.03
08/23/2019 02:4520-0.03
08/23/2019 01:4519-0.04
08/22/2019 21:4519-0.04
08/22/2019 20:4520-0.03
08/22/2019 18:4520-0.03
08/22/2019 17:4521-0.02
08/22/2019 16:4521-0.01
08/22/2019 15:45220
08/22/2019 14:45220
08/22/2019 13:45230.01
08/22/2019 12:45240.02
08/22/2019 11:45230.01
08/22/2019 09:45230.01
08/22/2019 08:45220
08/22/2019 07:45220
08/22/2019 06:4521-0.01
08/22/2019 05:45 -0.01
08/22/2019 04:45 -0.02
08/22/2019 00:45 -0.02
08/21/2019 23:45 -0.01
08/21/2019 22:45 -0.02
08/21/2019 21:45 -0.01
08/21/2019 18:4521-0.01
08/21/2019 17:45220
08/21/2019 16:45220
08/21/2019 15:45240.02
08/21/2019 14:45220
08/21/2019 11:45220
08/21/2019 10:4521-0.01
08/21/2019 09:4521-0.01
08/21/2019 08:45230.01
08/21/2019 07:4521-0.02
08/21/2019 04:4521-0.02
08/21/2019 03:4520-0.03
08/21/2019 00:4520-0.03
08/20/2019 23:4521-0.02
08/20/2019 22:4521-0.02
08/20/2019 21:4520-0.03
08/20/2019 19:4520-0.03
08/20/2019 18:4521-0.02
08/20/2019 16:45 -0.02
08/20/2019 15:45 -0.01
08/20/2019 14:4521-0.01
08/20/2019 13:45220
08/20/2019 07:45220
08/20/2019 06:4521-0.01
08/20/2019 05:45 -0.01
08/20/2019 04:45 -0.02
08/20/2019 03:45 -0.01
08/20/2019 02:45 -0.02
08/19/2019 21:45 -0.02
08/19/2019 20:45 -0.01
08/19/2019 17:4521-0.01
08/19/2019 16:45220
08/19/2019 13:45220
08/19/2019 12:45230.01
08/19/2019 11:45220
08/19/2019 10:45240.02
08/19/2019 09:45240.02
08/19/2019 08:45230.01
08/19/2019 07:45220
08/19/2019 05:45220
08/19/2019 04:4521-0.01
08/19/2019 03:45220
08/19/2019 01:45220
08/19/2019 00:4521-0.01
08/18/2019 23:45220
08/18/2019 22:4521-0.01
08/18/2019 21:45220
08/18/2019 17:45220
08/18/2019 16:45230.01
08/18/2019 12:45230.01
08/18/2019 11:45220
08/18/2019 10:45230.01
08/18/2019 09:45230.01
08/18/2019 08:45220
08/18/2019 03:45220
08/18/2019 02:4521-0.01
08/18/2019 00:45 -0.01
08/17/2019 23:45 -0.02
08/17/2019 22:45 -0.02
08/17/2019 21:45 -0.01
08/17/2019 17:4521-0.01
08/17/2019 16:45220
08/17/2019 10:45220
08/17/2019 09:4521-0.01
08/17/2019 06:45 -0.01
08/17/2019 05:45 -0.02
08/16/2019 20:45 -0.02
08/16/2019 19:4521-0.01
08/16/2019 18:45220
08/16/2019 13:45220
08/16/2019 12:45230.01
08/16/2019 10:45230.01
08/16/2019 09:45220
08/16/2019 08:4521-0.01
08/15/2019 22:45 -0.01
08/15/2019 21:45 -0.02
08/15/2019 17:4521-0.02
08/15/2019 16:4520-0.03
08/15/2019 11:4520-0.03
08/15/2019 10:4519-0.04
08/15/2019 04:4519-0.04
08/15/2019 03:4518-0.05
08/15/2019 02:4519-0.04
08/15/2019 01:4518-0.05
08/14/2019 19:4518-0.05
08/14/2019 18:4519-0.04
08/14/2019 17:4519-0.04
08/14/2019 16:4518-0.05
08/14/2019 15:4518-0.05
08/14/2019 14:4519-0.04
08/14/2019 13:4519-0.04
08/14/2019 12:4520-0.03
08/14/2019 11:4521-0.02
08/14/2019 10:4521-0.01
08/14/2019 09:4518-0.05
08/14/2019 08:45 -0.06
08/13/2019 23:4518-0.06
08/13/2019 22:4517-0.07
08/13/2019 21:4517-0.07
08/13/2019 20:4518-0.06
08/13/2019 19:45 -0.06
08/13/2019 18:45 -0.05
08/13/2019 17:4518-0.05
08/13/2019 16:4519-0.04
08/13/2019 15:4520-0.03
08/13/2019 14:4520-0.03
08/13/2019 13:4521-0.01
08/13/2019 12:45220
08/13/2019 11:45220
08/13/2019 10:45230.01
08/13/2019 09:45220
08/12/2019 16:45220
08/12/2019 15:45230.01
08/12/2019 14:45240.02
08/12/2019 13:45240.02
08/12/2019 12:45230.01
08/12/2019 11:4521-0.01
08/12/2019 10:4519-0.04
08/12/2019 09:4520-0.03
08/12/2019 04:4520-0.03
08/12/2019 03:4519-0.04
08/12/2019 00:4519-0.04
08/11/2019 23:4518-0.05
08/11/2019 22:4519-0.04
08/11/2019 21:4518-0.05
08/11/2019 20:4519-0.04
08/11/2019 18:4519-0.04
08/11/2019 17:4521-0.02
08/11/2019 16:45 -0.02
08/11/2019 15:45 -0.01
08/11/2019 12:45 -0.01
08/11/2019 11:4521-0.02
08/11/2019 10:4520-0.03
08/11/2019 09:4519-0.04
08/11/2019 08:4518-0.06
08/11/2019 07:45 -0.05
08/11/2019 06:45 -0.06
08/10/2019 21:45 -0.06
08/10/2019 20:45 -0.05
08/10/2019 18:4518-0.05
08/10/2019 17:4519-0.04
08/10/2019 16:4520-0.03
08/10/2019 15:4521-0.02
08/10/2019 14:45 -0.02
08/10/2019 13:45 -0.01
08/10/2019 12:4521-0.01
08/10/2019 11:45220
08/10/2019 10:4521-0.02
08/10/2019 08:45 -0.02
08/10/2019 07:45 -0.01
08/10/2019 06:45 -0.02
08/10/2019 02:4521-0.02
08/10/2019 01:4520-0.03
08/09/2019 20:4520-0.03
08/09/2019 19:4521-0.02
08/09/2019 16:45 -0.02
08/09/2019 15:45 -0.01
08/09/2019 14:4521-0.02
08/09/2019 13:45220
08/09/2019 10:45220
08/09/2019 09:4521-0.01
08/09/2019 08:4519-0.04
08/09/2019 07:4518-0.05
08/08/2019 15:45 -0.05
08/08/2019 14:45 -0.06
08/08/2019 12:45 -0.06
08/08/2019 11:4518-0.05
08/08/2019 10:4519-0.04
08/08/2019 09:4518-0.05
08/08/2019 08:4517-0.07
08/08/2019 07:4517-0.07
08/08/2019 06:4518-0.06
08/08/2019 01:4518-0.06
08/08/2019 00:4517-0.07
08/07/2019 18:4517-0.07
08/07/2019 17:4518-0.06
08/07/2019 14:45 -0.06
08/07/2019 13:45 -0.05
08/07/2019 06:45 -0.05
08/07/2019 05:45 -0.06
08/07/2019 00:4518-0.06
08/06/2019 23:4517-0.07
08/06/2019 19:4517-0.07
08/06/2019 18:4518-0.06
08/06/2019 17:45 -0.06
08/06/2019 16:45 -0.05
08/06/2019 15:45 -0.05
08/06/2019 14:45 -0.06
08/06/2019 12:45 -0.06
08/06/2019 11:4518-0.05
08/06/2019 10:4517-0.07
08/06/2019 09:4516-0.08
08/06/2019 08:4517-0.07
08/06/2019 06:4517-0.07
08/06/2019 05:4518-0.06
08/06/2019 00:4518-0.06
08/05/2019 23:4517-0.07
08/05/2019 20:4517-0.07
08/05/2019 19:4518-0.06
08/05/2019 18:4518-0.05
08/05/2019 17:4519-0.04
08/05/2019 16:4519-0.04
08/05/2019 15:4520-0.03
08/05/2019 14:4519-0.04
08/05/2019 13:4518-0.05
08/05/2019 12:45 -0.05
08/05/2019 11:45 -0.06
08/05/2019 10:4518-0.06
08/05/2019 09:4520-0.03
08/05/2019 08:4521-0.01
08/05/2019 07:45220
08/05/2019 06:4521-0.01
08/05/2019 02:45 -0.01
08/05/2019 01:45 -0.02
08/05/2019 00:4521-0.02
08/04/2019 23:4520-0.03
08/04/2019 20:4520-0.03
08/04/2019 19:4521-0.02
08/04/2019 17:45 -0.02
08/04/2019 16:45 -0.01
08/04/2019 12:45 -0.01
08/04/2019 11:45 -0.02
08/04/2019 09:4521-0.02
08/04/2019 08:4520-0.03
08/04/2019 07:4519-0.04
08/04/2019 04:4519-0.04
08/04/2019 03:4518-0.05
08/04/2019 00:45 -0.05
08/03/2019 23:45 -0.06
08/03/2019 21:45 -0.06
08/03/2019 20:45 -0.05
08/03/2019 17:4518-0.05
08/03/2019 16:4519-0.04
08/03/2019 13:4519-0.04
08/03/2019 12:4520-0.03
08/03/2019 11:4520-0.03
08/03/2019 10:4519-0.04
08/03/2019 01:4519-0.04
08/03/2019 00:4518-0.05
08/02/2019 21:4518-0.05
08/02/2019 20:4519-0.04
08/02/2019 19:4519-0.04
08/02/2019 18:4520-0.03
08/02/2019 16:4520-0.03
08/02/2019 15:4521-0.02
08/02/2019 12:4521-0.02
08/02/2019 11:45220
08/02/2019 10:45220
08/02/2019 09:45240.02
08/02/2019 08:45230.01
08/02/2019 07:45220
08/02/2019 06:4521-0.01
08/02/2019 05:4520-0.03
08/02/2019 04:4519-0.04
08/01/2019 15:4519-0.04
08/01/2019 14:4520-0.03
08/01/2019 10:4520-0.03
08/01/2019 09:4521-0.01
08/01/2019 08:45220
08/01/2019 06:45220
08/01/2019 05:4520-0.03
08/01/2019 04:4519-0.04
08/01/2019 02:4519-0.04
08/01/2019 01:4518-0.05
07/31/2019 23:4518-0.05
07/31/2019 22:4519-0.04
07/31/2019 21:4518-0.05
07/31/2019 19:4518-0.05
07/31/2019 18:4519-0.04
07/31/2019 16:4519-0.04
07/31/2019 15:4520-0.03
07/31/2019 14:4521-0.02
07/31/2019 13:45 -0.01
07/31/2019 12:4521-0.01
07/31/2019 11:45220
07/31/2019 09:45220
07/31/2019 08:45230.01
07/31/2019 07:45240.02
07/31/2019 06:45230.01
07/31/2019 05:45220
07/31/2019 04:45220
07/31/2019 02:4521-0.01
07/30/2019 18:45 -0.01
07/30/2019 17:4521-0.02
07/30/2019 16:4520-0.03
07/30/2019 12:45 -0.03
07/30/2019 11:45 -0.04
07/30/2019 10:45 -0.04
07/30/2019 09:45 -0.03
07/30/2019 08:45 -0.03
07/30/2019 07:45 -0.04
07/30/2019 06:4520-0.04
07/30/2019 05:4519-0.05
07/30/2019 04:4518-0.06
07/30/2019 01:45 -0.06
07/30/2019 00:45 -0.07
07/29/2019 18:45 -0.07
07/29/2019 17:45 -0.06
07/29/2019 15:4518-0.06
07/29/2019 14:4519-0.05
07/29/2019 11:4519-0.05
07/29/2019 10:4518-0.06
07/29/2019 09:4518-0.06
07/29/2019 08:4519-0.05
07/29/2019 02:4519-0.05
07/29/2019 01:4518-0.06
07/28/2019 21:45 -0.06
07/28/2019 20:45 -0.07
07/28/2019 19:45 -0.06
07/28/2019 18:4518-0.06
07/28/2019 17:4519-0.05
07/28/2019 15:4519-0.05
07/28/2019 14:4520-0.04
07/28/2019 10:4520-0.04
07/28/2019 09:4519-0.05
07/28/2019 08:4519-0.05
07/28/2019 07:4518-0.06
07/28/2019 06:45 -0.07
07/28/2019 01:4518-0.07
07/28/2019 00:4517-0.08
07/27/2019 19:4517-0.08
07/27/2019 18:4518-0.07
07/27/2019 12:45 -0.07
07/27/2019 11:45 -0.06
07/27/2019 10:45 -0.07
07/27/2019 06:4518-0.07
07/27/2019 05:4517-0.08
07/27/2019 04:4516-0.09
07/27/2019 03:4516-0.09
07/27/2019 02:4517-0.08
07/27/2019 01:4516-0.09
07/27/2019 00:4517-0.08
07/26/2019 21:4517-0.08
07/26/2019 20:4518-0.07
07/26/2019 19:45 -0.07
07/26/2019 18:45 -0.06

Start Stop